Regional Weather Roundup
Issued by NWS Jackson, KY

Home | Current Version | Previous Version | Graphics & Text | Print | Product List | Glossary On
Versions: 1 2 3 4 5 6 7 8 9 10 11 12 13 14 15 16 17 18 19 20 21 22 23 24 25 26 27 28 29 30 31 32 33 34 35 36 37 38 39 40 41 42 43 44 45 46 47 48 49 50
527
ASUS43 KJKL 221110
RWRJKL

EAST KENTUCKY HOURLY WEATHER ROUNDUP
NATIONAL WEATHER SERVICE JACKSON KY
700 AM EDT SUN OCT 22 2017

NOTE: "FAIR" INDICATES FEW OR NO CLOUDS BELOW 12,000 FEET WITH
NO SIGNIFICANT WEATHER AND/OR OBSTRUCTIONS TO VISIBILITY.

* THESE REPORTS ARE NOT UNDER NWS QUALITY CONTROL AND MAY NOT
  REPORT WEATHER SUCH AS PRECIPITATION AND FOG.

KYZ079-080-083-085-087-088-110-112-115-119-120-221200
...EASTERN KENTUCKY...

CITY           SKY/WX    TMP DP  RH WIND       PRES   REMARKS
JACKSON        CLEAR     53  48  83 CALM      30.26S
LONDON         CLEAR     46  43  89 CALM      30.23F
SOMERSET*      CLEAR     48  48 100 CALM      30.24R
MONTICELLO*    CLEAR     58  50  75 NE7       30.23R
WILLIAMSBURG*  SUNNY     52  50  93 SE7       30.23F
MIDDLESBORO*   CLEAR     44  44 100 CALM      30.28S
HARLAN APT*    MOSUNNY   52  46  82 CALM      30.28R
PIKE CO APT*     N/A     58  46  64 E5        30.27R
BIG SANDY APT* SUNNY     55  48  77 E6        30.27S
MOREHEAD APT*  SUNNY     54  48  82 SE6       30.25F
$$

KYZ035-036-041-042-044-050-067-078-099-221200
...CENTRAL KENTUCKY...

CITY           SKY/WX    TMP DP  RH WIND       PRES   REMARKS
MT STERLING*   CLEAR     54  50  87 SE8       30.23F
FLEMING/MASON* PTCLDY    56  49  76 S6        30.24R
DANVILLE*      CLEAR     52  46  82 CALM      30.22R
LEXINGTON      CLEAR     59  48  67 SE12      30.20S
FRANKFORT      CLEAR     57  46  66 SE7       30.17S
LOUISVILLE     CLOUDY    58  50  75 SE6       30.14S
LEBANON*         N/A     63  46  55 SE13      30.17S
GLASGOW*       MOCLDY    63  49  62 S9        30.16R
BOWLING GREEN  PTCLDY    56  53  90 CALM      30.14R
$$

KYZ091>093-OHZ055-061-077-WVZ005-015-034-035-042-221200
...SOUTHERN OHIO/WEST VIRGINIA...

CITY           SKY/WX    TMP DP  RH WIND       PRES   REMARKS
COVINGTON      PTCLDY    55  49  80 S9        30.17S
COLUMBUS       PTCLDY    53  50  89 SE3       30.22S
DAYTON         CLOUDY    52  50  93 SE7       30.19R
WILMINGTON     CLEAR     55  49  80 S8        30.20S
HUNTINGTON     PTCLDY    50  48  93 CALM      30.25S
CHARLESTON     PTCLDY    49  47  93 CALM      30.28S
PINEVILLE*     PTCLDY    45  43  93 MISG      30.36R
BECKLEY        CLEAR     55  46  71 VRB5      30.33S
BLUEFIELD      CLEAR     58  45  62 VRB6      30.34S
LOGAN CO APT*    N/A     59  48  67 CALM      30.29R
$$

VAZ002-007-008-TNZ017-027-036-066-071-221200
...SOUTHWEST VIRGINIA/EAST TENNESSEE...

CITY           SKY/WX    TMP DP  RH WIND       PRES   REMARKS
WISE*          PTCLDY    59  46  63 S8        30.32S
JONESVILLE*      N/A     45  45 100 CALM      30.30S
ABINGDON*      CLEAR     52  48  86 E6        30.32S
BRISTOL        PTCLDY    46  45  96 CALM      30.30R
MORRISTOWN*    SUNNY     50  46  87 CALM      30.26R
SEVIERVILLE*   SUNNY     45  45 100 CALM      30.26S
KNOXVILLE      CLOUDY    47  47 100 CALM      30.24S
LAFOLLETTE*    FOG       45  45 100 CALM      30.29S VSB 1/2
OAK RIDGE      CLOUDY    48  48 100 CALM      30.27R FOG
CROSSVILLE     CLOUDY    58  48  69 VRB7      30.24R
NASHVILLE      CLOUDY    65  52  62 SE10      30.14R
$$

...KEY TO REMARKS...
VSB - VISIBILITY IN MILES
WCI - WIND CHILL INDEX
HX  - HEAT INDEX

$$




USA.gov is the U.S. government's official web portal to all federal, state and local government web resources and services.